Flag for Denmark Weather past 2 weeks in Horsens, Denmark

Now
46 °F

Passing clouds.


Feels Like: 41 °F
Forecast: 39 / 42 °F
Wind: 13 mph from Southwest

Location: Billund Lufthavn

Current Time: Dec 19, 2014 at 5:49:51 AM

Latest Report: Dec 19, 2014 at 5:20 AM


Visibility: N/A

Pressure: 29.45 "Hg

Humidity: 93%

Dew point: 45 °F

Location of HorsensLocation

Historic Weather in Horsens — Graph

°F

Horsens temperature yesterday

Maximum temperature yesterday: 50 °F (at 6:20 PM)
Minimum temperature yesterday: 39 °F (at 12:20 AM)
Average temperature yesterday: 47 °F

Past Weeks' High & Low Weather Summary

 TemperatureHumidityPressure
High50 °F (Dec 18, 6:20 PM)100% (Dec 4, 9:20 PM)30.24 "Hg (Dec 4, 9:20 PM)
Low23 °F (Dec 9, 4:50 AM)71% (Dec 10, 12:50 PM)28.91 "Hg (Dec 12, 2:20 PM)
Average39 °F92%29.69 "Hg
* Reported Dec 4 4:20 AM — Dec 19 4:20 AM, Horsens, Weather by CustomWeather, © 2014

Note: Actual official high and low records may vary slightly from our data, if they occured in-between our weather recording intervals... More about our weather records

Advertising

Horsens weather history for previous 24 hours

 ConditionsComfort  
Time TempWeatherWind HumidityBarometerVisibility
4:20 AM
Dec 19
46 °FPartly cloudy.10 mph93%29.45 "HgN/A
3:50 AM46 °FPassing clouds.9 mph93%29.45 "HgN/A
3:20 AM46 °FPassing clouds.12 mph93%29.45 "HgN/A
2:50 AM48 °FPassing clouds.15 mph87%29.45 "HgN/A
2:20 AM48 °FPassing clouds.14 mph87%29.45 "HgN/A
1:50 AM48 °FPassing clouds.18 mph87%29.45 "HgN/A
1:20 AM48 °FPassing clouds.20 mph87%29.45 "HgN/A
12:50 AM48 °FPassing clouds.20 mph94%29.42 "HgN/A
12:20 AM50 °FOvercast.22 mph88%29.42 "HgN/A
11:50 PM
Dec 18
50 °FPassing clouds.24 mph94%29.42 "HgN/A
11:20 PM50 °FPassing clouds.18 mph94%29.42 "HgN/A
10:50 PM50 °FPartly cloudy.18 mph94%29.39 "HgN/A
10:20 PM50 °FLight rain. Passing clouds.20 mph94%29.39 "HgN/A
9:50 PM50 °FLight rain. Passing clouds.17 mph94%29.39 "Hg6 mi
9:20 PM50 °FDrizzle. Fog.18 mph94%29.39 "Hg3 mi
8:50 PM50 °FDrizzle. Fog.17 mph94%29.39 "Hg3 mi
8:20 PM50 °FDrizzle. Fog.17 mph94%29.36 "Hg2 mi
7:50 PM50 °FDrizzle. Fog.17 mph94%29.39 "Hg2 mi
7:20 PM50 °FDrizzle. Fog.18 mph94%29.36 "Hg2 mi
6:50 PM50 °FDrizzle. Fog.18 mph94%29.36 "Hg1 mi
6:20 PM50 °FDrizzle. Fog.18 mph94%29.36 "Hg1 mi
5:50 PM48 °FDrizzle. Fog.14 mph100%29.39 "Hg1 mi
5:20 PM48 °FLight rain. Low clouds.12 mph100%29.39 "Hg6 mi
4:50 PM48 °FLight rain. Fog.14 mph94%29.39 "Hg2 mi
4:20 PM48 °FLight rain. Fog.14 mph94%29.42 "Hg1 mi
3:58 PM48 °FDrizzle. Low clouds.15 mph94%29.42 "Hg1 mi
3:20 PM48 °FLight rain. Fog.14 mph100%29.42 "Hg1 mi
2:50 PM48 °FLight rain. Fog.12 mph100%29.45 "Hg1 mi
2:20 PM48 °FLight rain. Fog.12 mph100%29.45 "Hg2 mi
1:50 PM48 °FLight rain. Fog.9 mph100%29.45 "Hg2 mi
1:20 PM48 °FLight rain. Fog.13 mph100%29.47 "Hg1 mi
12:50 PM48 °FLight rain. Fog.13 mph100%29.47 "Hg1 mi
12:20 PM48 °FLight rain. Fog.14 mph100%29.47 "Hg1 mi
11:50 AM48 °FDrizzle. Fog.12 mph100%29.50 "Hg1 mi
11:20 AM48 °FDrizzle. Fog.12 mph94%29.50 "Hg1 mi
9:50 AM46 °FDrizzle. Fog.12 mph100%29.53 "Hg2 mi
9:20 AM46 °FDrizzle. Fog.12 mph100%29.53 "Hg1 mi
8:50 AM46 °FFog.12 mph100%29.53 "Hg2 mi
8:20 AM46 °FFog.13 mph100%29.53 "Hg1 mi
7:50 AM46 °FFog.12 mph100%29.53 "Hg1 mi
7:20 AM46 °FFog.10 mph100%29.56 "Hg1 mi
7:04 AM46 °FFog.9 mph100%29.53 "Hg2 mi
6:50 AM46 °FPassing clouds.10 mph93%29.53 "HgN/A
6:20 AM46 °FPartly cloudy.8 mph87%29.56 "HgN/A
5:50 AM45 °FPassing clouds.9 mph93%29.56 "HgN/A
5:20 AM45 °FPassing clouds.10 mph93%29.56 "HgN/A
Weather by CustomWeather, © 2014

See weather overviewHow to use our weather pages